Location: ???????
(55.4362°N, 38.1183°E)
Time: 14:14:38
(UTC+00:00)

Cosmos 372 Rocket - Pass Details

Date: 26 October 2021
Orbit: 738 x 768 km, 74.1° (Epoch: 04 December)

Event Time Altitude Azimuth Distance (km) Brightness Sun altitude
Rises 14:46:34 0° 241° (WSW) 3,171 9.0 -6.9°
Reaches altitude 10° 14:49:10 10° 252° (WSW) 2,250 8.2 -7.3°
Maximum altitude 14:53:40 31° 314° (NW) 1,294 5.6 -7.9°
Drops below altitude 10° 14:58:11 10° 16° (NNE) 2,261 6.2 -8.5°
Sets 15:00:49 0° 27° (NNE) 3,190 6.9 -8.9°
